| time (UTC) | temp C | wind direction | speed KPH | gust KPH | rain 1hr cm | rain 24hr cm | rain mn cm | humidity % | barometer mb |
| 20260506223014 | 13 | 212 | 0.0 | 1.6 | 0.00 | 0.33 | 0.33 | 94 | 1008.4 |
| 20260506221608 | 13 | 155 | 0.0 | 4.8 | 0.00 | 0.33 | 0.33 | 94 | 1008.3 |
| 20260506220056 | 13 | 129 | 0.0 | 4.8 | 0.00 | 0.33 | 0.33 | 94 | 1008.3 |
| 20260506214549 | 13 | 172 | 0.0 | 4.8 | 0.00 | 0.33 | 0.33 | 93 | 1008.2 |
| 20260506213058 | 13 | 332 | 0.0 | 6.4 | 0.03 | 0.33 | 0.33 | 93 | 1008.2 |
| 20260506211546 | 13 | 238 | 0.0 | 6.4 | 0.05 | 0.33 | 0.33 | 93 | 1008.1 |
| 20260506210042 | 13 | 114 | 0.0 | 8.0 | 0.08 | 0.33 | 0.33 | 93 | 1008.2 |
| 20260506204540 | 13 | 141 | 0.0 | 11.3 | 0.08 | 0.33 | 0.33 | 93 | 1008.4 |
| 20260506203037 | 13 | 174 | 0.0 | 4.8 | 0.05 | 0.30 | 0.30 | 93 | 1008.7 |
| 20260506201541 | 14 | 178 | 0.0 | 3.2 | 0.03 | 0.28 | 0.28 | 92 | 1008.7 |
| 20260506200135 | 14 | 162 | 0.0 | 12.9 | 0.00 | 0.25 | 0.25 | 92 | 1008.7 |
| 20260506194516 | 14 | 121 | 1.6 | 9.7 | 0.00 | 0.25 | 0.25 | 92 | 1008.8 |
| 20260506193015 | 15 | 121 | 0.0 | 11.3 | 0.03 | 0.25 | 0.25 | 92 | 1009.0 |
| 20260506191556 | 14 | 25 | 1.6 | 11.3 | 0.08 | 0.25 | 0.25 | 92 | 1009.3 |
| 20260506190056 | 14 | 245 | 1.6 | 11.3 | 0.08 | 0.25 | 0.25 | 92 | 1009.5 |
| 20260506184546 | 14 | 268 | 0.0 | 8.0 | 0.10 | 0.25 | 0.25 | 92 | 1009.8 |
| 20260506183050 | 14 | 150 | 1.6 | 8.0 | 0.13 | 0.23 | 0.23 | 92 | 1009.9 |
| 20260506181519 | 14 | 181 | 1.6 | 9.7 | 0.15 | 0.18 | 0.18 | 91 | 1010.0 |
| 20260506180118 | 14 | 206 | 0.0 | 12.9 | 0.18 | 0.18 | 0.18 | 90 | 1009.8 |
| 20260506174614 | 14 | 150 | 1.6 | 9.7 | 0.15 | 0.15 | 0.15 | 90 | 1010.0 |
| 20260506173101 | 15 | 152 | 1.6 | 6.4 | 0.10 | 0.10 | 0.10 | 89 | 1010.4 |
| 20260506171553 | 15 | 141 | 0.0 | 8.0 | 0.03 | 0.03 | 0.03 | 87 | 1010.6 |
| 20260506170041 | 15 | 254 | 0.0 | 6.4 | 0.00 | 0.00 | 0.00 | 84 | 1010.9 |
| 20260506164540 | 16 | 158 | 0.0 | 8.0 | 0.00 | 0.00 | 0.00 | 82 | 1011.0 |
| 20260506163040 | 16 | 261 | 1.6 | 11.3 | 0.00 | 0.00 | 0.00 | 81 | 1011.1 |
| 20260506161537 | 17 | 104 | 3.2 | 11.3 | 0.00 | 0.00 | 0.00 | 80 | 1011.2 |
| 20260506160036 | 17 | 219 | 3.2 | 14.5 | 0.00 | 0.00 | 0.00 | 79 | 1011.3 |
| 20260506154535 | 17 | 75 | 4.8 | 12.9 | 0.00 | 0.00 | 0.00 | 79 | 1011.4 |
| 20260506153045 | 17 | 180 | 4.8 | 11.3 | 0.00 | 0.00 | 0.00 | 78 | 1011.5 |
| 20260506151536 | 17 | 42 | 0.0 | 12.9 | 0.00 | 0.00 | 0.00 | 79 | 1011.2 |
| 20260506150015 | 17 | 136 | 1.6 | 16.1 | 0.00 | 0.00 | 0.00 | 79 | 1011.3 |
| 20260506144516 | 17 | 139 | 3.2 | 16.1 | 0.00 | 0.00 | 0.00 | 77 | 1011.4 |
| 20260506143056 | 18 | 77 | 3.2 | 9.7 | 0.00 | 0.00 | 0.00 | 77 | 1011.5 |
| 20260506141555 | 18 | 77 | 4.8 | 11.3 | 0.00 | 0.00 | 0.00 | 76 | 1011.4 |
| 20260506140037 | 18 | 75 | 1.6 | 12.9 | 0.00 | 0.00 | 0.00 | 77 | 1011.7 |
| 20260506134534 | 18 | 178 | 1.6 | 12.9 | 0.00 | 0.00 | 0.00 | 78 | 1011.6 |
| 20260506133014 | 17 | 226 | 4.8 | 12.9 | 0.00 | 0.00 | 0.00 | 78 | 1011.4 |
| 20260506131521 | 17 | 266 | 3.2 | 16.1 | 0.00 | 0.00 | 0.00 | 80 | 1011.4 |
| 20260506124556 | 16 | 179 | 3.2 | 14.5 | 0.00 | 0.00 | 0.00 | 81 | 1011.7 |
| 20260506123056 | 16 | 120 | 3.2 | 12.9 | 0.00 | 0.00 | 0.00 | 80 | 1012.2 |
| 20260506121555 | 16 | 101 | 1.6 | 12.9 | 0.00 | 0.00 | 0.00 | 83 | 1012.1 |
| 20260506120050 | 15 | 69 | 1.6 | 11.3 | 0.00 | 0.00 | 0.00 | 85 | 1012.1 |
| 20260506114550 | 15 | 98 | 3.2 | 9.7 | 0.00 | 0.00 | 0.00 | 85 | 1012.1 |
| 20260506113048 | 14 | 70 | 0.0 | 11.3 | 0.00 | 0.00 | 0.00 | 87 | 1012.0 |
| 20260506111548 | 14 | 171 | 0.0 | 4.8 | 0.00 | 0.00 | 0.00 | 87 | 1012.2 |
| 20260506110035 | 13 | 182 | 1.6 | 6.4 | 0.00 | 0.00 | 0.00 | 89 | 1012.3 |
| 20260506104535 | 13 | 77 | 0.0 | 8.0 | 0.00 | 0.00 | 0.00 | 90 | 1012.1 |
| 20260506103033 | 12 | 100 | 0.0 | 4.8 | 0.00 | 0.00 | 0.00 | 90 | 1012.2 |
| 20260506101532 | 12 | 234 | 0.0 | 8.0 | 0.00 | 0.00 | 0.00 | 91 | 1012.0 |
| 20260506100036 | 12 | 250 | 0.0 | 9.7 | 0.00 | 0.00 | 0.00 | 90 | 1011.9 |
| 20260506094530 | 12 | 141 | 0.0 | 6.4 | 0.00 | 0.00 | 0.00 | 89 | 1011.9 |
| 20260506093029 | 12 | 48 | 0.0 | 8.0 | 0.00 | 0.00 | 0.00 | 89 | 1011.9 |
| 20260506091527 | 12 | 174 | 0.0 | 6.4 | 0.00 | 0.00 | 0.00 | 89 | 1012.0 |
| 20260506090021 | 13 | 134 | 0.0 | 8.0 | 0.00 | 0.00 | 0.00 | 88 | 1012.1 |
| 20260506084513 | 13 | 154 | 1.6 | 8.0 | 0.00 | 0.00 | 0.00 | 88 | 1012.1 |
| 20260506083012 | 13 | 127 | 0.0 | 8.0 | 0.00 | 0.00 | 0.00 | 88 | 1012.2 |
| 20260506081510 | 13 | 129 | 1.6 | 6.4 | 0.00 | 0.00 | 0.00 | 88 | 1012.2 |
| 20260506073007 | 13 | 252 | 0.0 | 8.0 | 0.00 | 0.00 | 0.00 | 86 | 1012.3 |
| 20260506071505 | 13 | 99 | 0.0 | 3.2 | 0.00 | 0.00 | 0.00 | 86 | 1012.4 |
| 20260506061525 | 14 | 163 | 3.2 | 11.3 | 0.00 | 0.00 | 0.00 | 84 | 1012.3 |
| 20260506044600 | 15 | 129 | 1.6 | 11.3 | 0.00 | 0.00 | 0.00 | 81 | 1012.7 |
| 20260506043100 | 15 | 51 | 1.6 | 17.7 | 0.00 | 0.00 | 0.00 | 80 | 1012.8 |
| 20260506041558 | 15 | 87 | 1.6 | 14.5 | 0.00 | 0.00 | 0.00 | 80 | 1012.9 |
| 20260506040036 | 15 | 65 | 1.6 | 14.5 | 0.00 | 0.00 | 0.00 | 80 | 1012.8 |
| 20260506034545 | 15 | 67 | 4.8 | 19.3 | 0.00 | 0.00 | 0.00 | 80 | 1012.8 |
| 20260506033018 | 15 | 42 | 3.2 | 14.5 | 0.00 | 0.00 | 0.00 | 79 | 1012.9 |
| 20260506031518 | 15 | 110 | 1.6 | 12.9 | 0.00 | 0.00 | 0.00 | 78 | 1012.6 |
| 20260506030053 | 16 | 29 | 3.2 | 14.5 | 0.00 | 0.00 | 0.00 | 76 | 1012.8 |
| 20260506024612 | 16 | 214 | 4.8 | 17.7 | 0.00 | 0.00 | 0.00 | 75 | 1012.7 |
| 20260506023035 | 16 | 88 | 6.4 | 14.5 | 0.00 | 0.00 | 0.00 | 74 | 1012.8 |
| 20260506021534 | 16 | 130 | 3.2 | 19.3 | 0.00 | 0.00 | 0.00 | 74 | 1012.5 |
| 20260506020015 | 16 | 184 | 1.6 | 8.0 | 0.00 | 0.00 | 0.00 | 74 | 1012.5 |
| 20260506014515 | 16 | 108 | 3.2 | 12.9 | 0.00 | 0.00 | 0.00 | 74 | 1012.4 |
| 20260506013109 | 16 | 169 | 0.0 | 11.3 | 0.00 | 0.00 | 0.00 | 74 | 1012.2 |
| 20260506011656 | 16 | 169 | 4.8 | 12.9 | 0.00 | 0.00 | 0.00 | 74 | 1012.2 |
| 20260506010039 | 16 | 143 | 0.0 | 9.7 | 0.00 | 0.00 | 0.00 | 73 | 1011.9 |
| 20260506004538 | 16 | 40 | 3.2 | 12.9 | 0.00 | 0.00 | 0.00 | 73 | 1011.8 |
| 20260506003028 | 16 | 135 | 0.0 | 8.0 | 0.00 | 0.00 | 0.00 | 73 | 1011.6 |
| 20260506001526 | 16 | 171 | 4.8 | 16.1 | 0.00 | 0.00 | 0.00 | 71 | 1011.3 |
| 20260506000024 | 17 | 97 | 3.2 | 11.3 | 0.00 | 0.00 | 0.00 | 70 | 1011.2 |
| 20260505234532 | 17 | 126 | 4.8 | 14.5 | 0.00 | 0.00 | 0.00 | 69 | 1011.0 |
| 20260505233023 | 17 | 152 | 1.6 | 9.7 | 0.00 | 0.00 | 0.00 | 69 | 1010.9 |
| 20260505231523 | 18 | 233 | 1.6 | 14.5 | 0.00 | 0.00 | 0.00 | 68 | 1010.7 |
| 20260505230038 | 18 | 160 | 0.0 | 16.1 | 0.00 | 0.00 | 0.00 | 67 | 1010.4 |
| 20260505224522 | 18 | 77 | 3.2 | 16.1 | 0.00 | 0.00 | 0.00 | 66 | 1010.6 |